Tracking 17842 objects as of 1-September-2016
HD Live streaming from Space Station
objects crossing your sky now

NAVSTAR 33 (USA 92)

Track NAVSTAR 33 (USA 92) now!
NAVSTAR 33 (USA 92) is classified as:


NORAD ID: 22700
Int'l Code: 1993-042A
Perigee: 21,195.9 km
Apogee: 21,244.1 km
Inclination: 55.8 °
Period: 760.2 minutes
Semi major axis: 27590 km
RCS: 3.4011 m2 (large)
Launch date: June 26, 1993
Source: United States (US)
Launch site: AIR FORCE EASTERN TEST RANGE (AFETR)
PRN:
Your satellite tracking list
Your tracking list is empty





NASA's NSSDC Master Catalog

Two Line Element Set (TLE):
1 22700U 93042A   16244.35046323 -.00000019  00000-0  00000+0 0  9992
2 22700  55.7785 294.1592 0008738 304.1598  87.7052  1.89431330169409
Source of the keplerian elements: AFSPC

N2YO: 588